Date String (YYYY-MM-DD hh:mm:ss) UTC,Instrument flags,Ambient pressure (hPa),Sample flow (lpm),Bypass flow (lpm),Sample temperature (°C),Ambient temperature (°C),ASC tube jacket temperature (°C),LED temperature (°C),Box temperature (°C),Sample RH (%),Span deviation,Mass concentration (μg/m³),Mass concentration (μg/m³),Mass concentration (μg/m³)
DateTimeUTC,F1_M11,P_M11,Q1_M11,Q2_M11,T1_M11,T2_M11,T3_M11,T4_M11,T5_M11,U1_M11,ZSPAN_M11,X2_M11,X0_M11,X1_M11
2022-07-30 08:00:00,,0829.6,5.00,0.00,29.8,27.8,00.0,38.7,31.5,28.4,0000.0,0004.87,0008.19,0004.47
2022-07-30 08:01:00,,0829.6,5.00,0.00,29.8,28.0,00.0,38.6,31.5,27.9,0000.0,0004.88,0008.82,0004.49
2022-07-30 08:02:00,,0829.6,5.00,0.00,29.8,28.1,00.0,38.6,31.6,28.1,0000.0,0004.93,0008.99,0004.51
2022-07-30 08:03:00,,0829.9,5.00,0.00,29.8,28.2,00.0,38.6,31.6,27.8,0000.0,0004.94,0008.86,0004.52
2022-07-30 08:04:00,,0829.6,5.00,0.00,29.8,28.3,00.0,38.6,31.6,27.4,0000.0,0004.93,0008.83,0004.53
2022-07-30 08:05:00,,0829.6,5.00,0.00,29.8,28.4,00.0,38.6,31.7,28.2,0000.0,0004.95,0009.15,0004.55
2022-07-30 08:06:00,,0829.6,5.00,0.00,29.8,28.4,00.0,38.6,31.7,27.9,0000.0,0004.96,0009.43,0004.58
2022-07-30 08:07:00,,0829.5,4.99,0.00,29.8,28.5,00.0,38.6,31.7,27.8,0000.0,0004.97,0009.60,0004.59
2022-07-30 08:08:00,,0829.5,5.01,0.00,29.8,28.6,00.0,38.6,31.7,27.8,0000.0,0005.00,0009.74,0004.59
2022-07-30 08:09:00,,0829.5,5.00,0.00,29.8,28.6,00.0,38.6,31.7,27.9,0000.0,0005.03,0009.81,0004.60
2022-07-30 08:10:00,,0829.5,5.00,0.00,29.8,28.7,00.0,38.6,31.7,27.7,0000.0,0005.03,0009.94,0004.59
2022-07-30 08:11:00,,0829.6,4.99,0.00,29.8,28.7,00.0,38.6,31.8,27.0,0000.0,0005.01,0009.55,0004.59
2022-07-30 08:12:00,,0829.5,5.01,0.00,29.9,28.8,00.0,38.6,31.7,26.7,0000.0,0004.99,0009.25,0004.58
2022-07-30 08:13:00,,0829.5,5.00,0.00,29.9,28.8,00.0,38.7,31.8,26.5,0000.0,0004.98,0009.59,0004.57
2022-07-30 08:14:00,,0829.5,5.01,0.00,29.9,28.8,00.0,38.7,31.8,26.3,0000.0,0004.96,0009.74,0004.56
2022-07-30 08:15:00,,0829.5,4.99,0.00,29.9,28.9,00.0,38.7,31.8,25.8,0000.0,0004.97,0009.91,0004.55
2022-07-30 08:16:00,,0829.5,5.00,0.00,29.9,28.9,00.0,38.7,31.9,25.3,0000.0,0004.97,0009.58,0004.53
2022-07-30 08:17:00,,0829.5,4.99,0.00,29.9,28.9,00.0,38.7,31.9,25.3,0000.0,0004.98,0009.22,0004.52
2022-07-30 08:18:00,,0829.5,5.00,0.00,30.0,29.0,00.0,38.7,31.9,25.2,0000.0,0004.98,0009.07,0004.52
2022-07-30 08:19:00,,0829.5,5.00,0.00,30.0,29.0,00.0,38.7,31.9,25.0,0000.0,0004.93,0008.91,0004.51
2022-07-30 08:20:00,,0829.5,5.01,0.00,30.0,29.0,00.0,38.8,31.9,25.0,0000.0,0004.87,0008.65,0004.51
2022-07-30 08:21:00,,0829.5,5.00,0.00,30.0,29.0,00.0,38.8,32.0,24.9,0000.0,0004.83,0008.48,0004.50
2022-07-30 08:22:00,,0829.5,4.99,0.00,30.0,29.1,00.0,38.8,32.0,24.6,0000.0,0004.81,0008.35,0004.50
2022-07-30 08:23:00,,0829.5,5.01,0.00,30.1,29.1,00.0,38.8,32.0,24.1,0000.0,0004.81,0008.05,0004.47
2022-07-30 08:24:00,,0829.5,5.01,0.00,30.1,29.1,00.0,38.8,32.0,24.3,0000.0,0004.80,0007.75,0004.46
2022-07-30 08:25:00,,0829.5,5.00,0.00,30.1,29.1,00.0,38.8,32.0,23.7,0000.0,0004.79,0007.49,0004.45
2022-07-30 08:26:00,,0829.5,5.00,0.00,30.1,29.1,00.0,38.9,32.0,23.7,0000.0,0004.75,0007.17,0004.44
2022-07-30 08:27:00,,0829.5,5.00,0.00,30.1,29.1,00.0,38.9,32.0,23.2,0000.0,0004.70,0007.00,0004.43
2022-07-30 08:28:00,,0829.5,5.00,0.00,30.1,29.1,00.0,38.9,32.1,22.8,0000.0,0004.65,0007.03,0004.41
2022-07-30 08:29:00,,0829.5,5.01,0.00,30.2,29.1,00.0,38.9,32.1,22.6,0000.0,0004.63,0006.96,0004.38
2022-07-30 08:30:00,,0829.5,5.00,0.00,30.2,29.2,00.0,38.9,32.1,22.4,0000.0,0004.64,0007.04,0004.37
2022-07-30 08:31:00,,0829.4,5.00,0.00,30.2,29.1,00.0,38.9,32.1,22.6,0000.0,0004.63,0007.60,0004.35
2022-07-30 08:32:00,,0829.4,4.99,0.00,30.2,28.3,00.0,38.9,31.9,22.5,0000.0,0004.61,0007.70,0004.32
2022-07-30 08:33:00,,0829.4,5.01,0.00,30.1,27.7,00.0,38.8,31.7,22.7,0000.0,0004.59,0007.70,0004.29
2022-07-30 08:34:00,,0829.4,5.01,0.00,30.0,27.5,00.0,38.8,31.6,23.1,0000.0,0004.57,0007.68,0004.28
2022-07-30 08:35:00,,0829.4,5.00,0.00,29.9,27.5,00.0,38.8,31.5,23.1,0000.0,0004.56,0007.68,0004.28
2022-07-30 08:36:00,,0829.4,5.00,0.00,29.8,27.6,00.0,38.7,31.5,23.2,0000.0,0004.56,0007.68,0004.26
2022-07-30 08:37:00,,0829.4,5.00,0.00,29.8,27.7,00.0,38.7,31.5,23.2,0000.0,0004.57,0007.74,0004.26
2022-07-30 08:38:00,,0829.3,5.00,0.00,29.8,27.8,00.0,38.7,31.6,23.1,0000.0,0004.59,0008.62,0004.25
2022-07-30 08:39:00,,0829.4,5.00,0.00,29.8,27.9,00.0,38.7,31.6,23.0,0000.0,0004.61,0008.64,0004.23
2022-07-30 08:40:00,,0829.3,5.00,0.00,29.8,28.1,00.0,38.7,31.6,22.7,0000.0,0004.59,0008.62,0004.23
2022-07-30 08:41:00,,0829.3,4.99,0.00,29.8,28.2,00.0,38.6,31.6,22.6,0000.0,0004.56,0008.57,0004.22
2022-07-30 08:42:00,,0829.3,5.00,0.00,29.8,28.3,00.0,38.6,31.6,22.6,0000.0,0004.56,0008.14,0004.21
2022-07-30 08:43:00,,0829.4,5.01,0.00,29.8,28.3,00.0,38.6,31.6,22.6,0000.0,0004.57,0008.03,0004.21
2022-07-30 08:44:00,,0829.3,4.99,0.00,29.8,28.4,00.0,38.6,31.7,22.6,0000.0,0004.57,0008.04,0004.21
2022-07-30 08:45:00,,0829.4,5.01,0.00,29.8,28.5,00.0,38.6,31.7,22.8,0000.0,0004.59,0008.08,0004.20
2022-07-30 08:46:00,,0829.5,5.01,0.00,29.8,28.5,00.0,38.6,31.7,23.5,0000.0,0004.59,0008.05,0004.20
2022-07-30 08:47:00,,0829.3,5.01,0.00,29.8,28.6,00.0,38.6,31.7,23.7,0000.0,0004.59,0008.11,0004.21
2022-07-30 08:48:00,,0829.4,4.99,0.00,29.8,28.6,00.0,38.6,31.7,23.6,0000.0,0004.58,0008.05,0004.21
2022-07-30 08:49:00,,0829.4,5.01,0.00,29.8,28.6,00.0,38.6,31.7,23.6,0000.0,0004.56,0007.13,0004.22
2022-07-30 08:50:00,,0829.4,5.00,0.00,29.8,28.7,00.0,38.6,31.7,23.4,0000.0,0004.56,0007.24,0004.24
2022-07-30 08:51:00,,0829.2,5.00,0.00,29.9,28.7,00.0,38.7,31.7,23.8,0000.0,0004.57,0007.20,0004.25
2022-07-30 08:52:00,,0829.2,4.99,0.00,29.9,28.7,00.0,38.7,31.8,24.3,0000.0,0004.59,0007.18,0004.26
2022-07-30 08:53:00,,0829.3,5.00,0.00,29.9,28.8,00.0,38.7,31.8,24.0,0000.0,0004.58,0007.12,0004.27
2022-07-30 08:54:00,,0829.2,5.00,0.00,29.9,28.8,00.0,38.7,31.8,23.4,0000.0,0004.56,0007.42,0004.27
2022-07-30 08:55:00,,0829.3,5.00,0.00,29.9,28.8,00.0,38.7,31.8,23.1,0000.0,0004.57,0007.53,0004.27
2022-07-30 08:56:00,,0829.6,5.00,0.00,29.9,28.8,00.0,38.7,31.9,22.8,0000.0,0004.53,0007.45,0004.27
2022-07-30 08:57:00,,0829.3,5.01,0.00,29.9,28.8,00.0,38.7,31.9,22.7,0000.0,0004.50,0007.38,0004.27
2022-07-30 08:58:00,,0829.3,4.99,0.00,29.9,28.9,00.0,38.7,31.9,22.5,0000.0,0004.50,0007.24,0004.27
2022-07-30 08:59:00,,0829.3,5.00,0.00,30.0,28.9,00.0,38.7,31.9,22.2,0000.0,0004.53,0007.32,0004.27
